Showing default

UND ROADS 1, 64535

Orbit data source: Space-Track

UND ROADS 1, 64535 is an American payload satellite in SSO that was launched on Mon, 23 Jun 2025 UTC via an FALCON 9 launch vehicle from the Air Force Western Test Range (AFWTR). Payload-class satellites include a variety of spacecraft equipped with specific instruments for various scientific and technological missions. These include communications satellites like Starlink; space stations such as the ISS; scientific satellites like the Hubble; Earth observation satellites from companies like Planet Labs, Umbra, and HawkEye 360; GPS; miniature CubeSats for education and research; and military/defense satellites.

Loading next visibility...
Identifier
64535, 2025-135H
Orbit
SSO
Country
Flag of USUS
Related business
Manufacturer
UND
Mission
Operational Amateur Technology
Bus & Motor
CUBESAT 3U, Unknown motor
Mass
5.4 kg wet, 5.4 kg dry
Launch date (UTC)
2025-06-23 (11 months ago)
Launch vehicle
FALCON 9
Launch site
Air Force Western Test Range (AFWTR)
Object type
Payload
Rocket body
Debris
Shape & HBR
Box, 0.2 m
Radar Cross Section
0.035 m², Small (<0.1 m²)

Expand to show TLE details & history
Last TLE update: 18 hours ago

TLE from 18 hours ago
0 UND ROADS 1
1 64535U 25135H   26132.83832763  .00003703  00000-0  16496-3 0  9995
2 64535  97.4630 248.1306 0003201 314.6546  45.4428 15.22063148 49487
Epoch: 2026-05-12T20:07Z
TLE epoch observation values (Epoch: 2026-05-12T20:07:11.507Z)
Latitude
-0.00009°
Longitude
75.72571°
Altitude
501.165 km
Speed
7.615 km/s
True Right ascension
16h 32m 31s
True Declination
0° 00' 00"
Sunlit
Object was in full shadow at epoch
Visualization orbit readout
Latitude
Unknown
Longitude
Unknown
Altitude
Unknown
Speed
Unknown
Apparent Right ascension
Unknown
Apparent Declination
Unknown
Sunlit
N/A
Visualization observer readout
Local Sidereal Time
22:06:18
Azimuth
Unknown
Elevation
Unknown
Doppler factor
Unknown
Orbital elements
Apogee altitude
498.785 km
Perigee altitude
494.383 km
Semi-major axis
6,874.721 km
Eccentricity
0.00032
Inclination
97.463°
RAAN
248.1306°
Arg. of periapsis
314.6546°
True anomaly
45.46894°
Mean anomaly
45.4428°
Eccentric anomaly
45.45587°
Mean motion
3.80768 °/min
Orbital period
94.55 mins
BSTAR
0.00016496
Loading maneuver chart data...
Computing Atmospheric mass density...
Loading historical data...
Loading historical data...
Loading historical data...
Loading historical data...
Loading historical data...
Loading historical data...
Loading historical data...

Documentation

Showing up to 5 results
|